User: anonymous   Login
Location: NJAA Observatory
(40.6819°N, 74.8979°W)
Time: 05:06:23
(UTC-05:00)
Language:

Cosmos 1328 Rocket - Orbit

View from above orbital plane
View from above orbital plane
View from above satellite
View from above satellite

Ground track
Ground track

The orbit data is extracted from the following two-line orbital elements,

1 12988U 81117B   16043.91701692 +.00000349 +00000-0 +38408-4 0  9998
2 12988 082.5264 173.1781 0018859 031.5518 108.5354 14.84549173826029
Epoch (UTC): 12 February 2016 22:00:30
Eccentricity: 0.0018859
inclination: 82.5264°
perigee height: 602 km
apogee height: 628 km
right ascension of ascending node: 173.1781°
argument of perigee: 31.5518°
revolutions per day: 14.84549173
mean anomaly at epoch: 108.5354°
orbit number at epoch: 82602

The dashed part of the orbit path shows where the satellite is in the earth's shadow,  

DLR